C/2017 K6 ( Jacques )

Japanese version
Home page
Updated on October 9, 2017

---------------------------------------------------------------------

* Profile

Discovery Date May 29, 2017
Magnitude 17.5 mag
Discoverer Cristovao Jacques (SONEAR Observatory at Oliveira)

* Pictures

* Orbital Elements

Epoch 2018 Jan. 2.0 TT = JDT 2458120.5
T 2018 Jan. 3.13733 TT                                  MPCW
q   2.0027976            (2000.0)            P               Q
z  +0.0009047      Peri.  303.83735     +0.49566138     -0.22849814
 +/-0.0000055      Node    85.05456     +0.75133194     +0.59677826
e   0.9981880      Incl.   57.25118     -0.43568351     +0.76918419
From 128 observations 2017 May 29-Sept. 25, mean residual 0".5.

* Finding Charts

* Magnitudes Graph

        m1 = 11.8 + 5 log d + 7.5 log r

---------------------------------------------------------------------

The orbital elements are published on M.P.E.C. 2017-T14.
The charts are made with StellaNavigator Ver.10 (AstroArts).
The magnitudes graphs are made with Comet for Windows.

---------------------------------------------------------------------

Copyright(C) Seiichi Yoshida (comet@aerith.net). All rights reserved.